Hot Springs, VA

12:39 PM EDT on April 26, 2018 (GMT -0400)
Ingalls

Weather History for KHSP - January, 2014

Change the Weather History Date:

Tuesday, January 14, 2014

  Actual Average Record
Temperature  
Mean Temperature 36 °F -  
Max Temperature 39 °F 31 °F 60 °F (2007)
Min Temperature 33 °F 17 °F 1 °F (1997)
Degree Days  
Heating Degree Days 29    
Moisture  
Dew Point 34 °F    
Average Humidity 91    
Maximum Humidity 100    
Minimum Humidity 70    
Precipitation  
Precipitation 0.04 in - - ()
Sea Level Pressure  
Sea Level Pressure 29.82 in    
Wind  
Wind Speed 13 mph (West)    
Max Wind Speed 22 mph    
Max Gust Speed 29 mph    
Visibility 4 miles    
Events Rain , Snow    
Averages and records for this station are not official NWS values.
T = Trace of Precipitation, MM = Missing Value Source: NWS Daily Summary

Daily Weather History Graph

Daily Weather History Graph

Search for Another Location

Airport or City:

Astronomy

Jan. 14, 2014 Rise Set
Actual Time 7:34 AM EST 5:22 PM EST
Civil Twilight 7:05 AM EST 5:51 PM EST
Nautical Twilight 6:33 AM EST 6:24 PM EST
Astronomical Twilight 6:01 AM EST 6:55 PM EST
Moon 4:26 PM EST (1/14) 6:08 AM EST (1/14)
Length of Visible Light 10h 46m
Length of Day
9h 48m
Waxing Gibbous, 98% of the Moon is Illuminated
Jan 14
Waxing Gibbous
Jan 15
Full
Jan 24
Last Quarter
Jan 30
New
Feb 6
First Quarter

Hourly Weather History & Observations

Time (EST) Temp. Windchill Dew Point Humidity Pressure Visibility Wind Dir Wind Speed Gust Speed Precip Events Conditions
12:15 AM 39.2 °F 30.2 °F 37.4 °F 93% 29.87 in 10.0 mi SSW 17.3 mph 23.0 mph N/A Rain Light Rain
12:35 AM 37.4 °F 30.3 °F 35.6 °F 93% 29.86 in 7.0 mi SSW 10.4 mph 18.4 mph N/A   Light Drizzle
12:55 AM 37.4 °F 29.3 °F 37.4 °F 100% 29.85 in 3.0 mi SSW 12.7 mph - N/A   Overcast
1:15 AM 37.4 °F 29.8 °F 37.4 °F 100% 29.84 in 7.0 mi South 11.5 mph 16.1 mph N/A   Overcast
1:35 AM 35.6 °F 27.5 °F 35.6 °F 100% 29.84 in 7.0 mi SSW 11.5 mph - N/A   Light Drizzle
1:55 AM 35.6 °F 28.6 °F 35.6 °F 100% 29.82 in 4.0 mi SSW 9.2 mph 17.3 mph N/A   Overcast
2:15 AM 37.4 °F 31.4 °F 37.4 °F 100% 29.82 in 7.0 mi SSW 8.1 mph - N/A   Overcast
2:35 AM 37.4 °F 33.8 °F 37.4 °F 100% 29.82 in 7.0 mi SW 4.6 mph - N/A Rain Light Rain
2:55 AM 37.4 °F 30.8 °F 37.4 °F 100% 29.81 in 10.0 mi WSW 9.2 mph - N/A Rain Light Rain
3:15 AM 37.4 °F 30.3 °F 37.4 °F 100% 29.80 in 10.0 mi WSW 10.4 mph - N/A   Light Drizzle
3:35 AM 37.4 °F 30.8 °F 37.4 °F 100% 29.80 in 7.0 mi WSW 9.2 mph - N/A Rain Light Rain
3:55 AM 39.2 °F 33.0 °F 39.2 °F 100% 29.80 in 10.0 mi SW 9.2 mph - N/A Rain Light Rain
4:15 AM 37.4 °F 30.3 °F 37.4 °F 100% 29.79 in 0.2 mi WSW 10.4 mph - 0.02 in Rain Light Rain
4:35 AM 37.4 °F 29.8 °F 37.4 °F 100% 29.79 in 0.2 mi West 11.5 mph - 0.02 in Snow Light Snow
4:55 AM 37.4 °F 29.8 °F 37.4 °F 100% 29.77 in 0.2 mi WSW 11.5 mph - N/A Snow Light Snow
5:15 AM 37.4 °F 29.3 °F 37.4 °F 100% 29.77 in 0.8 mi West 12.7 mph - 0.01 in   Overcast
5:35 AM 39.2 °F 32.5 °F 39.2 °F 100% 29.78 in 4.0 mi WSW 10.4 mph - 0.01 in   Overcast
5:55 AM 39.2 °F 32.5 °F 39.2 °F 100% 29.77 in 4.0 mi WSW 10.4 mph - N/A   Overcast
6:15 AM 37.4 °F 30.3 °F 37.4 °F 100% 29.77 in 0.2 mi WSW 10.4 mph - N/A Snow Light Snow
6:35 AM 37.4 °F 29.8 °F 37.4 °F 100% 29.78 in 0.2 mi WSW 11.5 mph - N/A Snow Light Snow
6:55 AM 37.4 °F 29.8 °F 37.4 °F 100% 29.78 in 0.2 mi West 11.5 mph - N/A Snow Light Snow
7:15 AM 37.4 °F 29.3 °F 37.4 °F 100% 29.77 in 0.2 mi West 12.7 mph - N/A Snow Light Snow
7:35 AM 37.4 °F 29.8 °F 37.4 °F 100% 29.77 in 0.2 mi West 11.5 mph - N/A Snow Light Snow
7:55 AM 37.4 °F 28.2 °F 37.4 °F 100% 29.77 in 0.2 mi West 16.1 mph - N/A Snow Light Snow
8:15 AM 37.4 °F 29.3 °F 37.4 °F 100% 29.76 in 0.2 mi West 12.7 mph - N/A Snow Light Snow
8:35 AM 37.4 °F 29.3 °F 37.4 °F 100% 29.76 in 0.2 mi West 12.7 mph - N/A Snow Light Snow
8:55 AM 37.4 °F 28.5 °F 37.4 °F 100% 29.77 in 0.2 mi West 15.0 mph 21.9 mph N/A Snow Light Snow
9:35 AM 35.6 °F 26.2 °F 35.6 °F 100% 29.80 in 0.2 mi West 15.0 mph 24.2 mph N/A Snow Snow
9:55 AM 35.6 °F 26.2 °F 35.6 °F 100% 29.81 in 0.2 mi West 15.0 mph 25.3 mph N/A Snow Snow
10:16 AM 35.6 °F 25.5 °F 35.6 °F 100% 29.81 in 0.2 mi West 17.3 mph 27.6 mph 0.01 in Snow Snow
10:35 AM 35.6 °F 24.2 °F 35.6 °F 100% 29.80 in 0.2 mi West 21.9 mph 28.8 mph 0.01 in Snow Snow
10:55 AM 35.6 °F 25.5 °F 35.6 °F 100% 29.81 in 0.2 mi WNW 17.3 mph 24.2 mph N/A Snow Light Snow
11:15 AM 35.6 °F 25.9 °F 35.6 °F 100% 29.79 in 0.2 mi West 16.1 mph 19.6 mph N/A Snow Light Snow
11:35 AM 35.6 °F 25.5 °F 35.6 °F 100% 29.79 in 0.2 mi West 17.3 mph 21.9 mph N/A Snow Light Snow
11:55 AM 35.6 °F 27.5 °F 35.6 °F 100% 29.80 in 0.5 mi West 11.5 mph - N/A Snow Light Snow
12:15 PM 35.6 °F 27.5 °F 35.6 °F 100% 29.77 in 0.2 mi West 11.5 mph - N/A Snow Light Snow
12:35 PM 35.6 °F 27.5 °F 35.6 °F 100% 29.76 in 0.2 mi West 11.5 mph - N/A Snow Light Snow
1:15 PM 35.6 °F 25.9 °F 35.6 °F 100% 29.73 in 0.2 mi WNW 16.1 mph 20.7 mph N/A Snow Light Snow
1:35 PM 35.6 °F 26.2 °F 35.6 °F 100% 29.75 in 0.2 mi West 15.0 mph 20.7 mph N/A Snow Light Snow
2:35 PM 37.4 °F 27.5 °F 37.4 °F 100% 29.79 in 4.0 mi West 18.4 mph - N/A   Overcast
2:55 PM 37.4 °F 27.2 °F 37.4 °F 100% 29.80 in 2.5 mi West 19.6 mph 27.6 mph N/A   Mostly Cloudy
3:15 PM 37.4 °F 27.2 °F 33.8 °F 87% 29.82 in 4.0 mi West 19.6 mph 27.6 mph N/A   Overcast
3:35 PM 37.4 °F 26.9 °F 30.2 °F 75% 29.82 in 4.0 mi West 20.7 mph 25.3 mph N/A   Haze
3:55 PM 37.4 °F 28.9 °F 30.2 °F 75% 29.82 in 5.0 mi West 13.8 mph 17.3 mph N/A   Haze
4:15 PM 37.4 °F 29.3 °F 30.2 °F 75% 29.83 in 5.0 mi WNW 12.7 mph 21.9 mph N/A   Haze
4:35 PM 37.4 °F 29.3 °F 30.2 °F 75% 29.83 in 4.0 mi WNW 12.7 mph 23.0 mph N/A   Haze
4:55 PM 37.4 °F 28.5 °F 30.2 °F 75% 29.84 in 4.0 mi West 15.0 mph 20.7 mph N/A   Haze
5:15 PM 35.6 °F 26.6 °F 28.4 °F 75% 29.84 in 4.0 mi West 13.8 mph - N/A   Haze
6:15 PM 35.6 °F 27.5 °F 26.6 °F 70% 29.86 in 5.0 mi West 11.5 mph - N/A   Haze
6:35 PM 35.6 °F 26.2 °F 26.6 °F 70% 29.86 in 3.0 mi West 15.0 mph - N/A   Haze
6:55 PM 35.6 °F 25.9 °F 28.4 °F 75% 29.86 in 5.0 mi West 16.1 mph - N/A   Haze
7:35 PM 35.6 °F 25.9 °F 28.4 °F 75% 29.87 in 7.0 mi West 16.1 mph - N/A   Clear
7:55 PM 35.6 °F 26.6 °F 28.4 °F 75% 29.88 in 7.0 mi West 13.8 mph - N/A   Clear
8:15 PM 33.8 °F 23.5 °F 28.4 °F 81% 29.89 in 7.0 mi West 16.1 mph - N/A   Clear
8:35 PM 33.8 °F 23.5 °F 28.4 °F 81% 29.89 in 7.0 mi West 16.1 mph - N/A   Clear
8:56 PM 33.8 °F 23.9 °F 26.6 °F 75% 29.90 in 10.0 mi West 15.0 mph 18.4 mph N/A   Clear
9:15 PM 33.8 °F 23.9 °F 26.6 °F 75% 29.90 in 7.0 mi West 15.0 mph - N/A   Clear
9:35 PM 33.8 °F 24.3 °F 26.6 °F 75% 29.90 in 10.0 mi West 13.8 mph - N/A   Clear
9:37 PM 33.8 °F 24.3 °F 26.6 °F 75% 29.90 in 10.0 mi West 13.8 mph - N/A   Clear
10:15 PM 33.8 °F 24.3 °F 26.6 °F 75% 29.90 in 10.0 mi West 13.8 mph - N/A   Clear
10:35 PM 33.8 °F 23.9 °F 26.6 °F 75% 29.90 in 10.0 mi West 15.0 mph - N/A   Clear
10:55 PM 33.8 °F 23.5 °F 26.6 °F 75% 29.90 in 10.0 mi West 16.1 mph - N/A   Clear
11:15 PM 33.8 °F 23.5 °F 26.6 °F 75% 29.89 in 7.0 mi West 16.1 mph - N/A   Clear
11:35 PM 33.8 °F 23.9 °F 26.6 °F 75% 29.89 in 10.0 mi West 15.0 mph - N/A   Clear
11:55 PM 33.8 °F 23.9 °F 26.6 °F 75% 29.88 in 10.0 mi West 15.0 mph - N/A   Clear